| time (UTC) | temp F | wind direction | speed MPH | gust MPH | rain 1hr in | rain 24hr in | rain mn in | humidity % | barometer mb |
| 20260902064510 | 61 | 64 | 0.0 | 0.0 | 0.00 | 0.00 | 0.00 | 75 | 1019.2 |
| 20260902063007 | 60 | 64 | 0.0 | 0.0 | 0.00 | 0.00 | 0.00 | 76 | 1019.2 |
| 20260902061505 | 59 | 64 | 0.0 | 0.0 | 0.00 | 0.00 | 0.00 | 77 | 1019.2 |
| 20260902060004 | 59 | 64 | 0.0 | 0.0 | 0.00 | 0.00 | 0.00 | 78 | 1019.3 |
| 20260902054503 | 58 | 63 | 0.0 | 0.0 | 0.00 | 0.00 | 0.00 | 79 | 1019.3 |
| 20260902053001 | 58 | 63 | 0.0 | 0.0 | 0.00 | 0.00 | 0.00 | 79 | 1019.2 |
| 20260902051618 | 58 | 63 | 0.0 | 0.0 | 0.00 | 0.00 | 0.00 | 78 | 1019.1 |
| 20260902050100 | 58 | 63 | 0.0 | 0.0 | 0.00 | 0.00 | 0.00 | 76 | 1019.0 |
| 20260902044553 | 58 | 63 | 0.0 | 6.0 | 0.00 | 0.00 | 0.00 | 76 | 1018.9 |
| 20260902043109 | 59 | 57 | 0.0 | 2.0 | 0.00 | 0.00 | 0.00 | 75 | 1018.9 |
| 20260902041550 | 59 | 60 | 0.0 | 3.0 | 0.00 | 0.00 | 0.00 | 75 | 1018.8 |
| 20260902040050 | 59 | 57 | 0.0 | 3.0 | 0.00 | 0.00 | 0.00 | 75 | 1018.9 |
| 20260902034549 | 59 | 48 | 0.0 | 4.0 | 0.00 | 0.00 | 0.00 | 75 | 1018.7 |
| 20260902033047 | 59 | 84 | 0.0 | 0.0 | 0.00 | 0.00 | 0.00 | 75 | 1018.7 |
| 20260902031546 | 60 | 83 | 0.0 | 0.0 | 0.00 | 0.00 | 0.00 | 74 | 1018.9 |
| 20260902030044 | 60 | 83 | 0.0 | 3.0 | 0.00 | 0.00 | 0.00 | 73 | 1019.0 |
| 20260902024542 | 60 | 83 | 0.0 | 0.0 | 0.00 | 0.00 | 0.00 | 73 | 1019.0 |
| 20260902023046 | 60 | 83 | 0.0 | 0.0 | 0.00 | 0.00 | 0.00 | 72 | 1018.9 |
| 20260902021540 | 60 | 78 | 0.0 | 3.0 | 0.00 | 0.00 | 0.00 | 71 | 1018.8 |
| 20260902020038 | 61 | 82 | 0.0 | 4.0 | 0.00 | 0.00 | 0.00 | 71 | 1018.8 |
| 20260902014537 | 61 | 95 | 0.0 | 4.0 | 0.00 | 0.00 | 0.00 | 71 | 1018.7 |
| 20260902013034 | 61 | 87 | 1.0 | 6.0 | 0.00 | 0.00 | 0.00 | 70 | 1018.7 |
| 20260902011549 | 61 | 75 | 0.0 | 7.0 | 0.00 | 0.00 | 0.00 | 70 | 1018.8 |
| 20260902010031 | 61 | 92 | 0.0 | 5.0 | 0.00 | 0.00 | 0.00 | 70 | 1018.9 |
| 20260902004534 | 62 | 80 | 0.0 | 4.0 | 0.00 | 0.00 | 0.00 | 69 | 1019.0 |
| 20260902003030 | 62 | 67 | 0.0 | 5.0 | 0.00 | 0.00 | 0.00 | 69 | 1018.9 |
| 20260902001527 | 62 | 79 | 0.0 | 3.0 | 0.00 | 0.00 | 0.00 | 68 | 1019.1 |
| 20260902000026 | 63 | 105 | 0.0 | 2.0 | 0.00 | 0.00 | 0.00 | 68 | 1019.1 |
| 20260901234523 | 63 | 107 | 0.0 | 4.0 | 0.00 | 0.00 | 0.00 | 67 | 1019.3 |
| 20260901233025 | 63 | 90 | 1.0 | 5.0 | 0.00 | 0.00 | 0.00 | 67 | 1019.2 |
| 20260901231520 | 63 | 103 | 0.0 | 6.0 | 0.00 | 0.00 | 0.00 | 67 | 1019.1 |
| 20260901230018 | 64 | 69 | 0.0 | 9.0 | 0.00 | 0.00 | 0.00 | 66 | 1019.1 |
| 20260901224524 | 64 | 102 | 1.0 | 7.0 | 0.00 | 0.00 | 0.00 | 65 | 1019.1 |
| 20260901223014 | 64 | 71 | 1.0 | 5.0 | 0.00 | 0.00 | 0.00 | 65 | 1018.9 |
| 20260901221540 | 64 | 91 | 0.0 | 7.0 | 0.00 | 0.00 | 0.00 | 64 | 1018.9 |
| 20260901220010 | 65 | 45 | 2.0 | 9.0 | 0.00 | 0.00 | 0.00 | 64 | 1018.9 |
| 20260901214509 | 65 | 65 | 4.0 | 9.0 | 0.00 | 0.00 | 0.00 | 64 | 1018.9 |
| 20260901213018 | 65 | 87 | 2.0 | 8.0 | 0.00 | 0.00 | 0.00 | 64 | 1018.9 |
| 20260901211512 | 65 | 109 | 2.0 | 9.0 | 0.00 | 0.00 | 0.00 | 63 | 1018.9 |
| 20260901210007 | 66 | 84 | 2.0 | 10.0 | 0.00 | 0.00 | 0.00 | 63 | 1019.0 |
| 20260901204513 | 66 | 31 | 3.0 | 9.0 | 0.00 | 0.00 | 0.00 | 62 | 1019.0 |
| 20260901203006 | 67 | 109 | 2.0 | 9.0 | 0.00 | 0.00 | 0.00 | 62 | 1019.0 |
| 20260901201505 | 67 | 111 | 1.0 | 7.0 | 0.00 | 0.00 | 0.00 | 60 | 1018.9 |
| 20260901200020 | 68 | 80 | 0.0 | 8.0 | 0.00 | 0.00 | 0.00 | 60 | 1018.9 |
| 20260901194504 | 69 | 135 | 0.0 | 6.0 | 0.00 | 0.00 | 0.00 | 59 | 1018.8 |
| 20260901193003 | 69 | 90 | 0.0 | 7.0 | 0.00 | 0.00 | 0.00 | 58 | 1018.8 |
| 20260901191506 | 70 | 106 | 0.0 | 2.0 | 0.00 | 0.00 | 0.00 | 56 | 1018.7 |
| 20260901190108 | 71 | 94 | 0.0 | 3.0 | 0.00 | 0.00 | 0.00 | 54 | 1018.7 |
| 20260901184504 | 73 | 51 | 0.0 | 0.0 | 0.00 | 0.00 | 0.00 | 52 | 1018.6 |
| 20260901183001 | 75 | 329 | 0.0 | 0.0 | 0.00 | 0.00 | 0.00 | 50 | 1018.4 |
| 20260901181618 | 76 | 328 | 0.0 | 0.0 | 0.00 | 0.00 | 0.00 | 47 | 1018.4 |
| 20260901180100 | 76 | 328 | 0.0 | 0.0 | 0.00 | 0.00 | 0.00 | 45 | 1018.2 |
| 20260901174702 | 77 | 328 | 0.0 | 0.0 | 0.00 | 0.00 | 0.00 | 44 | 1018.2 |
| 20260901173105 | 78 | 317 | 0.0 | 1.0 | 0.00 | 0.00 | 0.00 | 43 | 1018.2 |
| 20260901171602 | 78 | 304 | 0.0 | 0.0 | 0.00 | 0.00 | 0.00 | 42 | 1018.1 |
| 20260901170100 | 79 | 297 | 0.0 | 2.0 | 0.00 | 0.00 | 0.00 | 40 | 1018.2 |
| 20260901164615 | 80 | 336 | 0.0 | 5.0 | 0.00 | 0.00 | 0.00 | 39 | 1018.3 |
| 20260901163055 | 81 | 357 | 0.0 | 8.0 | 0.00 | 0.00 | 0.00 | 38 | 1018.5 |
| 20260901161555 | 81 | 357 | 1.0 | 5.0 | 0.00 | 0.00 | 0.00 | 38 | 1018.4 |
| 20260901160108 | 81 | 348 | 0.0 | 3.0 | 0.00 | 0.00 | 0.00 | 38 | 1018.4 |
| 20260901154552 | 81 | 281 | 0.0 | 6.0 | 0.00 | 0.00 | 0.00 | 38 | 1018.4 |
| 20260901153101 | 81 | 315 | 0.0 | 8.0 | 0.00 | 0.00 | 0.00 | 37 | 1018.4 |
| 20260901151550 | 82 | 321 | 1.0 | 8.0 | 0.00 | 0.00 | 0.00 | 37 | 1018.4 |
| 20260901150058 | 83 | 340 | 1.0 | 10.0 | 0.00 | 0.00 | 0.00 | 35 | 1018.4 |
| 20260901144552 | 85 | 254 | 2.0 | 10.0 | 0.00 | 0.00 | 0.00 | 34 | 1018.4 |
| 20260901143057 | 83 | 341 | 1.0 | 4.0 | 0.00 | 0.00 | 0.00 | 37 | 1018.5 |
| 20260901141543 | 83 | 347 | 0.0 | 0.0 | 0.00 | 0.00 | 0.00 | 36 | 1018.6 |
| 20260901140123 | 82 | 41 | 0.0 | 3.0 | 0.00 | 0.00 | 0.00 | 37 | 1018.8 |
| 20260901134540 | 83 | 17 | 0.0 | 3.0 | 0.00 | 0.00 | 0.00 | 38 | 1018.8 |
| 20260901133038 | 82 | 13 | 0.0 | 4.0 | 0.00 | 0.00 | 0.00 | 37 | 1018.9 |
| 20260901131540 | 83 | 334 | 3.0 | 10.0 | 0.00 | 0.00 | 0.00 | 36 | 1019.1 |
| 20260901130041 | 83 | 270 | 0.0 | 6.0 | 0.00 | 0.00 | 0.00 | 36 | 1019.2 |
| 20260901124535 | 82 | 32 | 1.0 | 4.0 | 0.00 | 0.00 | 0.00 | 37 | 1019.4 |
| 20260901123035 | 82 | 262 | 1.0 | 6.0 | 0.00 | 0.00 | 0.00 | 36 | 1019.5 |
| 20260901121532 | 82 | 264 | 0.0 | 3.0 | 0.00 | 0.00 | 0.00 | 37 | 1019.4 |
| 20260901120032 | 81 | 306 | 2.0 | 6.0 | 0.00 | 0.00 | 0.00 | 39 | 1019.5 |
| 20260901114533 | 82 | 13 | 0.0 | 9.0 | 0.00 | 0.00 | 0.00 | 38 | 1019.6 |
| 20260901113034 | 83 | 290 | 0.0 | 7.0 | 0.00 | 0.00 | 0.00 | 36 | 1019.8 |
| 20260901111525 | 81 | 155 | 1.0 | 7.0 | 0.00 | 0.00 | 0.00 | 38 | 1019.8 |
| 20260901110022 | 80 | 218 | 3.0 | 9.0 | 0.00 | 0.00 | 0.00 | 39 | 1019.8 |
| 20260901104521 | 78 | 220 | 4.0 | 10.0 | 0.00 | 0.00 | 0.00 | 40 | 1019.9 |
| 20260901103014 | 78 | 346 | 0.0 | 0.0 | 0.00 | 0.00 | 0.00 | 46 | 1020.1 |
| 20260901101530 | 76 | 346 | 3.0 | 6.0 | 0.00 | 0.00 | 0.00 | 48 | 1020.2 |
| 20260901100013 | 76 | 263 | 2.0 | 7.0 | 0.00 | 0.00 | 0.00 | 48 | 1020.4 |
| 20260901094525 | 76 | 335 | 0.0 | 10.0 | 0.00 | 0.00 | 0.00 | 51 | 1020.3 |
| 20260901093010 | 77 | 261 | 1.0 | 8.0 | 0.00 | 0.00 | 0.00 | 49 | 1020.4 |
| 20260901091506 | 76 | 204 | 3.0 | 6.0 | 0.00 | 0.00 | 0.00 | 54 | 1020.4 |
| 20260901090007 | 75 | 263 | 0.0 | 5.0 | 0.00 | 0.00 | 0.00 | 55 | 1020.3 |
| 20260901084559 | 74 | 228 | 0.0 | 4.0 | 0.00 | 0.01 | 0.00 | 60 | 1020.3 |
| 20260901083055 | 73 | 223 | 1.0 | 5.0 | 0.00 | 0.01 | 0.00 | 62 | 1020.4 |
| 20260901081558 | 71 | 220 | 1.0 | 4.0 | 0.00 | 0.01 | 0.00 | 65 | 1020.4 |
| 20260901080138 | 70 | 252 | 0.0 | 5.0 | 0.00 | 0.01 | 0.00 | 68 | 1020.3 |
| 20260901074542 | 69 | 255 | 0.0 | 4.0 | 0.00 | 0.01 | 0.00 | 69 | 1020.3 |
| 20260901073038 | 67 | 245 | 0.0 | 4.0 | 0.00 | 0.01 | 0.00 | 72 | 1020.2 |
| 20260901071538 | 66 | 290 | 0.0 | 3.0 | 0.00 | 0.01 | 0.00 | 74 | 1020.2 |
| 20260901070035 | 65 | 105 | 0.0 | 0.0 | 0.00 | 0.01 | 0.00 | 75 | 1020.2 |